Regional Weather Roundup
Issued by NWS

Home | Current Version | Previous Version | Graphics & Text | Print | Product List | Glossary On
Versions: 1 2 3 4 5 6 7 8 9 10 11 12 13 14 15 16 17 18 19 20 21 22 23 24 25 26 27 28 29 30 31 32 33 34 35 36 37 38 39 40 41 42 43 44 45 46 47 48 49 50
000
ASUS43 KLSX 220507
RWRMO

WEATHER SUMMARY FOR MISSOURI
NATIONAL WEATHER SERVICE SPRINGFIELD MO
1200 AM CDT FRI AUG 22 2014

NOTE: "FAIR" INDICATES FEW OR NO CLOUDS BELOW 12,000 FEET WITH NO
       SIGNIFICANT WEATHER AND/OR OBSTRUCTIONS TO VISIBILITY.
       CURRENT SKY AND/OR WEATHER CONDITIONS ARE NOT AVAILABLE FOR
       CHILLICOTHE AND FARMINGTON.

MOZ001>031-035>038-043-044-053-054-220600-
...NORTHERN AND WESTERN MISSOURI...

CITY           SKY/WX    TMP DP  RH WIND       PRES   REMARKS
KANSAS CTY INT CLEAR     83  72  69 S13       29.92R
KANSAS C DTWN  CLEAR     86  71  60 S14       29.91R HX  91
LEE`S SUMMIT   CLEAR     83  71  67 SW10      29.94S
ST JOSEPH      PTCLDY    83  74  74 S9        29.89R
CHILLICOTHE      N/A     83  72  69 S7        29.92R
KIRKSVILLE     CLEAR     80  74  81 S7        29.93S

$$
MOZ066>068-077>081-088>096-101>105-220600-
...SOUTHWEST MISSOURI...

CITY           SKY/WX    TMP DP  RH WIND       PRES   REMARKS
SPRINGFIELD    CLEAR     78  68  71 S9        30.02S
JOPLIN         CLEAR     81  71  71 S15       29.99S

$$
MOZ032>034-039>042-045>050-055>058-069>072-220600-
...CENTRAL MISSOURI...

CITY           SKY/WX    TMP DP  RH WIND       PRES   REMARKS
COLUMBIA       PTCLDY    78  73  84 S8        29.96S
JEFFERSON CITY PTCLDY    80  70  71 CALM      29.95R
ROLLA          CLEAR     79  66  64 SW10      30.00R
SEDALIA        CLEAR     82  69  64 SW10      29.96S
WHITEMAN AFB   CLEAR     78  67  68 S9        29.94S
OSAGE BEACH    CLEAR     81  66  61 SW6       29.99R

$$
MOZ051-052-059>065-220600-
...EAST CENTRAL MISSOURI...

CITY           SKY/WX    TMP DP  RH WIND       PRES   REMARKS
ST LOUIS INTL  PTCLDY    86  75  69 S8        29.97R HX  95
SPIRIT OF STL  PTCLDY    82  73  74 S5        29.95S
ST CHARLES     PTCLDY    78  75  90 CALM      29.94S

$$
MOZ072>076-082>087-097>100-106>115-220600-
...SOUTH CENTRAL AND SOUTHEAST MISSOURI...

CITY           SKY/WX    TMP DP  RH WIND       PRES   REMARKS
CAPE GIRARDEAU PTCLDY    79  73  82 S3        30.02R
FARMINGTON     CLEAR     79  72  78 S8        30.05R
POPLAR BLUFF   PTCLDY    77  70  79 SW5       30.02R
WEST PLAINS    CLEAR     78  66  66 SW5       30.07R

$$


USA.gov is the U.S. government's official web portal to all federal, state and local government web resources and services.